Погода в Сеймчане

Погода в Сеймчане : погода сейчас, прогноз погоды и архив. Всё, что Вы хотите узнать о погоде в Сеймчане!

Хотите узнать прогноз погоды в Сеймчане? Тогда Вам сюда: Погода в Сеймчане

Поиск расширенной информации на нашем сайте:

Другие новости

Новости СМИ2

Главная страница сайта

Новости сайта

03.07.2017

Напоминаем, что на нашем специализированном сайте Метеоцентр.Азия вы можете получить высокодетализированные автоматические прогнозы погоды по пунктам России, СНГ и мира в авиационном формате (включающие направление и скорость ветра, видимость, явления погоды, количество и форму облачности, нижнюю и верхнюю границу облачности).

Рекомендуем: Если плохие окна необходимо грамотно выбрать нащельник со склада.

Погода в Сеймчане - сегодня

Время (UTC), дата Ветер
(°,м/с) 
Видим.   Явления Облачность Т
(°С)
Тd
(°С)
f(%) Тe
(°С)
Pmin
(гПа)
dP
(гПа)
Po
(мм)
O2
(г/м3)
Тmin Tmax R s Состояние
почвы
06 20.02.18 150 (ЮВ) 10 км  слаб. снег  10/3 1000 м средняя, верхняя 
[Sc|Ac trans|Cs]
-20.8 -24.1 75 -21  1007.5  -0.1  734  322           
12 20.02.18 тихо ()   20000 м  слаб. снег  10/3 1000 м средняя, верхняя 
[Sc|Ac trans|Cs]
-22.5 -24.9 81 -23  1008.9  0.6  735  325           
15 20.02.18 тихо ()   20000 м  слаб. снег  10/3 1000 м средняя, верхняя 
[Sc|Ac trans|Cs]
-23.2 -25.6 81 -23  1009.2  0.1  735  326           
18 20.02.18 тихо ()   4000 м  слаб. снег  10/3 1000 м средняя 
[Sc|As trans]
-25.4 -28.1 78 -25  1010.4  0.9  736  329           
21 20.02.18 тихо ()   20000 м  слаб. снег  10/0 средняя, верхняя 
[Ac trans|Cs]
-28.7 -31.7 75 -29  1011.8  1.1  737  334  -31.7    0.3  97  равномерный
сухой снег
100% 
03 21.02.18 тихо ()   10 км  слаб. снег  10/0 средняя, верхняя 
[Ac trans|Cs]
-21.9 -25.7 71 -22  1013.1  0.6  738  325           
06 21.02.18 270 (З) 20000 м  {снег}  9/0 средняя, верхняя 
[Ac trans|Ci fib]
-21.8 -26 69 -22  1013.8  0.7  739  325           
12 21.02.18 тихо ()   20000 м    8/0 средняя, верхняя 
[Ac trans|Ci fib]
-35.7 -39.2 70 -36  1017.8  0.9  741  345           
15 21.02.18 тихо ()   20000 м    5/0 средняя, верхняя 
[Ac trans|Ci fib]
-36.5 -40.2 69 -37  1018.5  0.5  741  347           
18 21.02.18 тихо ()   20000 м    10/0 средняя, верхняя 
[Ac trans|Cs]
-30.2 -33.6 72 -30  1018.4  0.7  742  338           
21 21.02.18 190 (Ю) 20000 м  слаб. снег  10/0 средняя, верхняя 
[Ac trans|Cs]
-28.5 -31.8 73 -29  1019.2  742  336  -37.2    0.0  96  равномерный
сухой снег
100% 
03 22.02.18 тихо ()   20000 м  {снег}  3/0 верхняя 
[Ci fib]
-21.6 -27.9 57 -22  1020.3  0.4  744  327           
06 22.02.18 190 (Ю) 20000 м  {снег}  ясно 
-21.6 -27.7 58 -22  1021.3  744  327           
09 22.02.18 тихо ()   20000 м    ясно 
-34.6 -37.9 72 -35  1024.8  1.9  746  346    -19  0.0     
12 22.02.18 тихо ()   20000 м    ясно 
-38.1 -41.9 67 -38  1027  1.7  747  352           
15 22.02.18 тихо ()   20000 м    ясно 
-39.7 -43.9 64 -40  1028.1  0.9  748  355           
18 22.02.18 тихо ()   20000 м  ледяные иглы{снег}  ясно 
-41.1 -45.5 62 -41  1029.5  1.2  749  357           
21 22.02.18 тихо ()   20000 м  ледяные иглы{снег}  1/0 верхняя 
[Ci fib]
-42.4 -47 61 -42  1031.2  1.5  750  360  -42.4      96  равномерный
сухой снег
100% 
03 23.02.18 тихо ()   20000 м    9/0 средняя, верхняя 
[Ac trans|Ci fib]
-27.7 -33.4 58 -28  1029.6  -0.4  750  338           
06 23.02.18 200 (Ю) 20000 м    9/3 1000 м средняя, верхняя 
[Sc|Ac trans|Ci fib]
-26.1 -31.2 62 -27  1029.2  -0.2  750  336           
12 23.02.18 тихо ()   20000 м  слаб. снег  10/4 1000 м средняя, верхняя 
[Sc|Ac trans|Cs]
-26.5 -29.8 74 -27  1029  0.1  750  336           
15 23.02.18 290 (З) 4000 м  слаб. снег  10/4 1000 м средняя 
[Sc|As trans]
-22.2 -24.4 82 -23  1027.8  -0.7  749  330           
18 23.02.18 320 (СЗ) 4000 м  слаб. снег  10/4 1000 м средняя 
[Sc|As trans]
-19.2 -22.2 77 -22  1027.5  -0.1  749  326           
21 23.02.18 020 (С) 20000 м  в посл. час снег  10/4 1000 м средняя 
[Sc|As trans]
-19.3 -23.7 68 -25  1028.9  1.3  750  327  -28.8    97  равномерный
сухой снег
100% 
03 24.02.18 030 (СВ) 4000 м  слаб. ливневой снег  10/6 1000 м кучево-дожд., средняя 
[Cb calv|As op]
-19.2 -22.9 72 -25  1031.2  752  328           
Время (UTC), дата Ветер
(°,м/с) 
Видим.   Явления Облачность Т
(°С)
Тd
(°С)
f(%) Тe
(°С)
Pmin
(гПа)
dP
(гПа)
Po
(мм)
O2
(г/м3)
Тmin Tmax R s Состояние
почвы

Для получения пояснительной информации подведите курсор к названию столбца.

ПОГОДА в Сеймчане - архив

Всё, что Вы хотите узнать о погоде в Сеймчане - удобно и подробно!

Выберите нужную дату (начиная с 1 января 2015* года) и нажмите кнопку "Найти".
Будут отображены архивные сводки погоды по пункту Сеймчан, начиная с указанной даты.


Отображать данные в формате CSV (для использования в таблицах Excel)


Внимание! Наш архив погоды предназначен исключительно для личного некоммерческого использования в познавательных целях. Если Вам необходимы официальные справки о состоянии погоды (для производственных, юридических, коммерческих и т.п. целей), обращайтесь в органы Росгидромета.

*Примечание: данная дата относится к архиву по метеостанциям СССР (Россия, СНГ, Балтия).
Архив по метеостанциям Зарубежной Европы и Азии (кроме Китая) хранится 10 дней, по другим регионам земного шара (Китай, Африка, Америка, Австралия, Океания) - 1 день.

Сеймчан - район местоположения метеостанции


Название, широта, долгота, высота метеостанции:
Сеймчан 62.9°ш. 152.4°д. 205 м над ур. моря [Российская Федерация]

Дополнительная информация

В oтличие oт бoльшинства пoгoдных сайтoв мы публикуем пoдрoбную метеoинфoрмацию в детальнoм прoфессиoнальнoм фoрмате.

Характеристики температуры и влажнoсти вoздуха измеряются на высoте 2 м в тени вдали oт зданий и деревьев.
Скoрoсть ветра измеряется на высoте 10 м (на урoвне рoста челoвека скoрoсть ветра ниже в 1.5-2 раза). Если метеoстанция нахoдится в гoрoде или в лесу, тo скoрoсть ветра занижена на 2-4 м/с пo сравнению с oткрытым местoм. Скoрoсть ветра над акватoриями крупных рек и oзёр, а также на вершинах хoлмoв на 2-5 м/с выше, чем в oбычных услoвиях.
Атмoсфернoе давление в разных тoчках местнoсти мoжет значительнo oтличаться oт давления на метеoстанции, в зависимoсти oт услoвий рельефа (при пoдъёме на 10 м давление пoнижается примернo на 1 мм рт.ст.).